Skip Page Navigation
NASA JPL Caltech
NASA Logo - Jet Propulsion Laboratory + View the NASA Portal
+ Center for Near-Earth Object Studies
JPL Home Earth Solar System Stars & Galaxies Technology
JPL Solar System Dynamics
BODIES ORBITS EPHEMERIDES TOOLS PHYSICAL DATA DISCOVERY FAQ SITE MAP
IMPORTANT: The SSD Announcement email list is now available. Major changes are coming in the near future, including possible hostname and/or URL changes. To be notified of such changes, subscribe to this email list.

Please visit this page for more details.


JPL Small-Body Database Browser
Search: [ help ]  
392710 (2012 BH132)
Classification: Main-belt Asteroid          SPK-ID: 2392710
Ephemeris | Orbit Diagram | Orbital Elements | Mission Design | Physical Parameters | Discovery Circumstances ]

[ show orbit diagram ]
Orbital Elements at Epoch 2458600.5 (2019-Apr-27.0) TDB
Reference: JPL 16 (heliocentric ecliptic J2000)
 Element Value Uncertainty (1-sigma)   Units 
e .2512502935443379 5.7259e-08  
a 3.136944593038751 7.8605e-08 au
q 2.348786343205441 1.7481e-07 au
i 21.65893122677212 9.5711e-06 deg
node 136.011582115645 1.8288e-05 deg
peri 258.2638721846241 2.6246e-05 deg
M 178.0557536598783 2.1602e-05 deg
tp 2457596.780850425795
(2016-Jul-27.28085043)
0.00010897 TDB
period 2029.358144398649
5.56
7.6277e-05
2.088e-07
d
yr
n .1773959914338714 6.6677e-09 deg/d
Q 3.925102842872061 9.8354e-08 au
  Orbit Determination Parameters
   # obs. used (total)      153  
   data-arc span      6640 days (18.18 yr)  
   first obs. used      2001-02-02  
   last obs. used      2019-04-09  
   planetary ephem.      DE431  
   SB-pert. ephem.      SB431-N16  
   condition code      0  
   norm. resid. RMS      .63212  
   source      ORB  
   producer      Otto Matic  
   solution date      2019-Jul-14 14:54:07  

Additional Information
 Earth MOID = 1.45956 au 
 Jupiter MOID = 2.02456 au 
 T_jup = 3.056 
[ show covariance matrix ]

Ephemeris | Orbit Diagram | Orbital Elements | Mission Design | Physical Parameters | Discovery Circumstances ]

Physical Parameter Table
Parameter Symbol Value Units Sigma Reference Notes
absolute magnitude H 15.6   n/a MPO440694  

392710 (2012 BH132)          Discovered 2004-Aug-08 by LINEAR at Socorro
Reference: Last Updated: 2014-04-17

Alternate Designations
 2012 BH132 = 2004 PJ47 = 2010 MM24 
Ephemeris | Orbit Diagram | Orbital Elements | Mission Design | Physical Parameters | Discovery Circumstances ]
ABOUT SSD CREDITS/AWARDS PRIVACY/COPYRIGHT GLOSSARY LINKS
FirstGov
(server date/time)  
NASA Home Page
Site Manager:   Ryan S. Park
Webmaster  Alan B. Chamberlin